EXPRESS-AT1 (39612 NORAD) Tracking and Keplerian Element Data

This shows tracking and keplerian element data for the satellite.

Feedback or suggestion? Click here.




ElementValue
Catalog39612
NameEXPRESS-AT1
Epoch Orbit4301
Epoch Day353.56372733
Epoch Year2025
RAAN3.3546
Inclination0.022
Eccentricity4.94E-05
Argument of Perigee88.7338
Mean Anonmoly255.2488
Mean Motion1.00270605
Decay Rate0
L11 39612U 14010A 25353.56372733 .00000000 00000+0 00000+0 0 9999
L22 39612 0.0220 3.3546 0000494 88.7338 255.2488 1.00270605 43015



Live tracking and technical data element details for EXPRESS-AT1 (NORAD 39612). EXPRESS-AT1 can be tracked NOW for your location showing map with azimuth and elevation plus other details from your city location.







IsCatalogInMostPopularTable: catalog: 39612, numindb: 638
Update: records affected: 1



GetName: 39612 EXPRESS-AT1

Hit Count: updated at: Thu, 21 May 2026 11:14:55 GMT